Location: Bayham Abbey
(51.1000°N, 0.3500°E)
Time: 02:54:19
(UTC+00:00)

Daily predictions for brighter satellites

Satellite Brightness Start Highest point End
(mag) Time Altitude Azimuth Time Altitude Azimuth Time Altitude Azimuth
Cosmos 2228 Rocket 3.9 00:05:20 29° SE 00:07:00 41° E 00:11:14 10° NNE
Meteor 1-12 Rocket 4.4 00:02:27 10° N 00:08:21 75° ENE 00:11:46 27° SSE
Cosmos 2082 Rocket 3.2 00:07:01 25° SSE 00:09:19 34° ESE 00:14:24 10° NE
Helios 1A Rocket 4.3 00:07:43 17° ESE 00:10:01 30° ENE 00:13:26 10° N
Cosmos 1833 Rocket 2.7 00:08:10 28° SSW 00:11:18 85° WNW 00:16:58 10° NNE
BREEZE-M DEB (TANK) 3.7 00:13:11 34° SSE 00:13:11 34° SSE 00:17:45 10° ESE
Cosmos 724 4.4 00:12:03 31° S 00:14:44 58° ESE 00:20:29 10° NE
Cosmos 1908 3.6 00:12:07 10° NNW 00:15:31 42° W 00:16:07 38° WSW
PSLV R/B 4.0 00:20:13 10° N 00:24:43 57° WNW 00:26:44 30° SW
Cosmos 1140 Rocket 3.6 00:22:28 29° SW 00:25:12 74° WNW 00:30:27 10° NNE
USA 267 3.2 00:18:43 10° ENE 00:25:17 72° SE 00:30:21 18° SW
Cosmos 1441 Rocket 3.4 00:22:57 10° NNW 00:26:27 49° W 00:27:04 43° SW
NOSS 3-3 (A) 4.2 00:21:40 13° WSW 00:26:41 65° NW 00:33:23 10° NE
Cosmos 1707 3.7 00:26:20 28° WSW 00:27:31 35° WNW 00:30:56 10° N
Cosmos 1674 4.2 00:26:29 19° WSW 00:27:44 23° WNW 00:30:37 10° NNW
Cosmos 1455 4.2 00:26:21 10° NNE 00:28:57 19° ENE 00:31:18 11° ESE
Iridium 51 4.4 00:28:15 39° S 00:29:48 86° W 00:34:17 10° N
Cosmos 1869 Rocket 4.2 00:25:43 10° NNW 00:29:51 42° W 00:31:14 32° SW
Cosmos 1733 Rocket 3.0 00:25:43 10° N 00:30:04 78° E 00:31:54 34° SSE
Resurs 1-4 Rocket 4.4 00:29:14 10° NE 00:31:52 14° E 00:34:31 10° ESE
GP-B 3.3 00:28:58 10° N 00:33:20 62° W 00:35:02 35° SSW
Cosmos 1400 Rocket 2.8 00:32:16 41° S 00:33:33 71° E 00:37:32 10° NNE
H-2A R/B 2.6 00:32:37 10° N 00:36:58 54° WNW 00:38:59 29° SW
Cosmos 381 Rocket 4.5 00:31:02 10° NNW 00:37:30 88° WSW 00:41:55 22° SSE
Cosmos 2278 4.5 00:34:18 10° NNW 00:39:55 52° NE 00:45:28 10° SE
NOSS 3-4 (A) 3.9 00:34:48 10° NW 00:41:29 59° SW 00:47:10 19° SSE
NOSS 3-4 (C) 3.9 00:34:55 10° NW 00:41:36 60° SW 00:47:19 19° SSE
Cosmos 1346 Rocket 2.8 00:39:46 10° N 00:43:40 70° ENE 00:45:17 33° SSE
Cosmos 468 Rocket 4.0 00:41:10 10° NNW 00:46:31 88° WSW 00:49:48 24° SSE
Cosmos 2315 Rocket 4.4 00:40:59 10° NNW 00:47:04 53° W 00:50:26 26° SSW
Cosmos 2251 Rocket 3.5 00:44:26 29° SSW 00:47:11 78° WNW 00:52:30 10° NNE
Cosmos 407 Rocket 3.6 00:44:27 28° SW 00:47:19 72° WNW 00:52:36 10° NNE
Cosmos 1954 Rocket 4.3 00:48:42 29° S 00:51:18 58° ESE 00:56:32 10° NNE
Okean 2 4.4 00:49:49 23° SE 00:51:37 35° E 00:55:16 10° NNE
Cosmos 2333 Rocket 4.1 00:47:26 10° NNW 00:52:24 29° NE 00:57:22 10° ESE
Cosmos 1190 Rocket 4.0 00:51:10 30° SSW 00:53:49 78° ESE 00:59:09 10° NNE
Meteor 1-4 Rocket 4.0 00:53:08 18° ESE 00:53:58 20° E 00:56:16 10° NE
CZ-2C R/B 4.2 00:49:44 10° ESE 00:54:11 30° ENE 00:58:40 10° N
Cosmos 1763 Rocket 3.7 00:50:41 10° NNW 00:55:51 54° WSW 00:58:19 29° S
Cosmos 2285 Rocket 4.4 00:51:49 21° SW 00:56:05 59° WNW 01:02:23 10° NNE
Cosmos 2322 Rocket 3.6 00:52:13 10° NNW 00:57:30 38° NE 01:02:46 10° ESE
Cosmos 1300 3.0 00:55:08 10° NNW 00:58:34 45° W 00:59:22 38° SW
USA 234 3.4 00:56:31 10° SSE 01:02:51 50° SW 01:09:12 10° WNW
SL-14 R/B 3.4 01:01:39 35° SW 01:03:03 59° WNW 01:06:52 10° N
Cosmos 1953 2.7 00:59:15 10° N 01:03:08 57° ENE 01:05:20 23° SSE
SL-8 R/B 3.9 00:59:03 10° W 01:03:34 44° SSW 01:08:06 10° SE
Cosmos 1697 Rocket 4.0 00:59:47 10° NW 01:04:04 23° WSW 01:05:45 20° SW
Cosmos 1862 Rocket 3.5 01:04:13 33° SSW 01:06:06 75° WNW 01:10:27 10° N
Aureole 3 2.6 01:09:14 50° SW 01:09:51 68° WNW 01:12:51 10° N
Cosmos 1980 Rocket 2.8 01:06:13 10° NW 01:11:29 39° WSW 01:14:01 26° SSW
Nadezhda 1 Rocket 4.2 01:06:27 10° N 01:12:53 73° ENE 01:18:17 15° SSE
Cosmos 540 Rocket 3.7 01:09:18 10° NNW 01:14:18 50° WSW 01:16:52 26° SSW
Cosmos 1758 4.5 01:15:04 10° NNW 01:18:20 27° W 01:19:20 24° WSW
ADEOS II 4.0 01:15:16 10° NE 01:19:17 22° E 01:23:15 10° SE
Cosmos 1607 4.5 01:14:39 14° WSW 01:20:13 60° NW 01:26:40 10° NE
MOZ.5/SAFIR/RUBIN 5/SL-8 3.8 01:18:21 20° SSE 01:21:37 89° ENE 01:26:22 10° NNW
Cosmos 2369 4.2 01:17:15 10° NW 01:22:36 41° WSW 01:25:30 24° SSW
COSMOS 2406 3.2 01:19:32 25° SSW 01:23:05 89° ESE 01:28:54 10° NNE
Lacrosse 5 rocket 1.1 01:19:38 10° WNW 01:23:48 79° SSW 01:27:46 10° SE
Cosmos 1356 Rocket 3.6 01:22:17 30° SW 01:24:08 59° WNW 01:28:14 10° N
IDEFIX/ARIANE 42P 3.4 01:19:35 10° NNE 01:24:37 44° E 01:28:28 16° SSE
Meteor 1-16 Rocket 4.4 01:24:37 10° NNW 01:30:10 58° W 01:33:51 22° SSW
Cosmos 1707 Rocket 4.5 01:28:29 22° SW 01:30:45 38° WNW 01:34:55 10° N
Okean 1-7 3.0 01:30:04 27° SSW 01:32:20 80° W 01:36:41 10° N
Okean 3 4.0 01:34:53 25° SW 01:36:52 45° WNW 01:40:50 10° N
Cosmos 1238 4.5 01:34:19 10° N 01:38:22 87° W 01:40:12 25° S
ATLAS 2AS CENTAUR R/B 3.7 01:32:01 10° NW 01:38:45 49° NNE 01:45:13 10° ESE
Cosmos 1315 Rocket 2.7 01:39:37 25° S 01:41:45 80° ESE 01:45:42 10° NNE
SL-16 R/B 2.1 01:36:28 10° NNW 01:42:11 81° WSW 01:47:51 10° SSE
CZ-2C R/B 4.4 01:37:34 10° NNE 01:43:01 39° E 01:48:21 10° SSE
SJ 16-02 3.1 01:39:49 10° SSE 01:43:15 23° E 01:46:40 10° NE
Helios 1A Rocket 3.9 01:43:06 23° SW 01:44:22 28° W 01:47:45 10° NW
Cosmos 1850 Rocket 4.4 01:46:14 19° S 01:50:00 59° ESE 01:55:12 10° NNE
Orbus 7S? 4.4 01:48:29 10° W 01:51:10 30° NNW 01:53:42 10° NE
Cosmos 2082 Rocket 2.8 01:48:50 16° SW 01:53:13 52° NW 01:58:48 10° NNE
Cosmos 1709 Rocket 4.2 01:49:42 15° S 01:55:05 74° E 02:01:28 10° NNE
Cosmos 1741 Rocket 4.3 01:51:18 18° S 01:55:06 62° ESE 02:00:19 10° NNE
Cosmos 2219 Rocket 3.5 01:49:50 10° NNW 01:55:13 42° NE 02:00:35 10° ESE
Cosmos 1782 Rocket 3.5 01:51:45 10° NNW 01:56:10 79° W 01:59:39 16° S
Cosmos 1908 Rocket 4.1 01:52:37 10° NNW 01:56:50 43° W 01:59:24 21° SSW
SL-16 R/B 3.2 01:51:24 10° SE 01:57:31 58° ENE 02:03:39 10° N
CZ-2D R/B 2.5 01:52:34 10° NNE 01:58:01 61° ESE 02:02:42 14° S
Cosmos 2237 4.4 01:56:20 10° NW 02:01:55 54° WSW 02:07:28 10° S
Cosmos 1455 2.8 02:00:23 10° NNW 02:03:32 33° W 02:05:03 22° SW
Cosmos 2360 Rocket 2.4 01:58:32 10° NNW 02:04:15 79° ENE 02:09:56 10° SSE
Meteor 1-28 Rocket 4.1 02:01:00 10° SE 02:04:25 46° ENE 02:07:51 10° N
Cosmos 968 Rocket 3.9 02:02:10 15° S 02:06:15 55° ESE 02:11:16 10° NNE
Genesis I 4.4 02:05:37 16° S 02:07:46 28° ESE 02:10:52 10° ENE
USA 267 3.7 02:01:50 10° ENE 02:08:16 62° NNW 02:14:42 10° W
RESURS DK-1 3.0 02:04:24 10° NNW 02:08:26 57° NE 02:12:25 10° SE
MSX 3.9 02:05:14 10° NNE 02:11:01 85° ESE 02:16:00 14° SSW
Cosmos 841 Rocket 4.1 02:07:41 10° NW 02:12:29 37° WSW 02:16:19 15° SSW
Resurs 1-4 Rocket 2.1 02:07:13 10° NNE 02:12:30 82° ESE 02:17:04 14° SSW
H-2A R/B 3.4 02:12:54 10° N 02:16:53 66° WNW 02:19:49 17° SSW
FENGYUN 3A 4.0 02:16:34 10° NNE 02:21:55 62° ESE 02:27:13 10° S
COBE Rocket 4.2 02:18:46 10° N 02:23:34 58° WNW 02:27:39 15° SSW
Cosmos 2278 4.4 02:18:47 10° NW 02:23:50 34° WSW 02:28:37 11° SSW
Meteor 1-4 Rocket 3.7 02:25:17 15° WSW 02:26:53 22° WNW 02:29:18 10° NNW
SL-24 R/B 4.4 02:29:04 10° S 02:33:58 85° W 02:38:49 10° N
CZ-2C R/B 2.9 02:29:18 10° S 02:34:15 48° W 02:39:18 10° NNW
Cosmos 2242 Rocket 3.6 02:30:52 13° SSW 02:34:48 72° WNW 02:39:18 10° N
Cosmos 2333 Rocket 2.2 02:31:29 10° NNW 02:37:11 70° WSW 02:42:53 10° SSE
Sich 1 Rocket 4.2 02:32:57 10° N 02:37:26 59° ENE 02:41:51 10° SSE
Timation 1 Rocket 4.4 02:32:20 13° SSW 02:37:43 90° WNW 02:43:43 10° NNE
Cosmos 2098 Rocket 3.6 02:32:47 10° NNW 02:37:50 80° W 02:43:50 10° S
Cosmos 1825 4.2 02:35:34 10° SE 02:38:18 22° E 02:41:02 10° NE
Cosmos 1953 4.2 02:36:17 10° NW 02:38:30 15° W 02:40:26 11° WSW
Cosmos 2151 Rocket 4.0 02:35:29 10° N 02:39:58 67° ENE 02:44:24 10° SSE
Cosmos 1814 Rocket 4.1 02:35:54 10° NNW 02:40:59 56° WSW 02:46:07 10° S
Cosmos 2322 Rocket 2.5 02:36:17 10° NW 02:41:41 47° WSW 02:47:05 10° S
Cosmos 2292 4.3 02:38:41 10° N 02:41:47 88° W 02:45:23 10° S
SL-27 R/B 2.0 02:40:26 13° SSW 02:42:48 70° ESE 02:45:37 10° NNE
Cosmos 1892 4.2 02:41:15 10° SSE 02:44:21 30° E 02:47:29 10° NNE
Cosmos 1242 Rocket 3.0 02:44:54 14° SW 02:46:58 32° WNW 02:49:37 10° N
NPP 4.2 02:41:52 10° N 02:47:01 47° WNW 02:52:03 10° SW
Meteor 2-5 Rocket 3.9 02:43:41 10° S 02:49:36 87° ESE 02:55:37 10° NNE
SL-4 R/B 4.0 02:47:57 10° S 02:51:07 20° SE 02:54:21 10° E
Okean 2 Rocket 3.2 02:48:27 10° N 02:52:53 81° E 02:57:17 10° SSE
Cosmos 1408 3.0 02:53:36 12° SW 02:56:04 33° WNW 02:58:49 10° N
Cosmos 2074 Rocket 4.2 02:50:43 10° S 02:56:55 76° E 03:03:08 10° NNE
Cosmos 1674 Rocket 4.0 02:53:59 10° S 02:58:22 64° E 03:02:47 10° NNE
Cosmos 1570 Rocket 4.1 02:53:32 10° NNW 02:58:52 87° WSW 03:04:12 10° SSE
ADEOS II 2.2 02:54:09 10° N 02:59:22 66° WNW 03:04:33 10° SSW
Lacrosse 5 rocket 2.8 02:58:58 10° W 03:01:32 16° SW 03:04:02 10° SSW
Cosmos 2208 Rocket 4.2 02:56:41 10° NNW 03:02:02 79° ENE 03:07:16 10° SSE
IDEFIX/ARIANE 42P 3.6 02:59:20 10° N 03:04:02 34° WNW 03:08:43 10° SW
Cosmos 1833 4.3 02:58:46 10° SSW 03:04:27 83° ESE 03:10:07 10° NNE
ALOS 2.3 03:00:05 10° NNE 03:04:45 90° NW 03:09:22 10° SSW
Cosmos 405 Rocket 2.5 03:08:34 10° NNW 03:12:10 73° WSW 03:15:46 10° S
Cosmos 2184 Rocket 4.1 03:08:51 10° S 03:15:06 86° W 03:21:27 10° N
Cosmos 1378 Rocket 3.5 03:11:17 10° SSW 03:15:34 76° WNW 03:19:53 10° N
